STARLINK-3126 (49444 NORAD) Tracking and Keplerian Element Data

This shows tracking and keplerian element data for the satellite.

Feedback or suggestion? Click here.




ElementValue
Catalog49444
NameSTARLINK-3126
Epoch Orbit1130
Epoch Day16.25001157
Epoch Year2022
RAAN177.6932
Inclination53.2154
Eccentricity0.0002692
Argument of Perigee12.258
Mean Anonmoly288.6806
Mean Motion15.73273031
Decay Rate-0.00108101
L11 49444U 21104AN 22016.25001157 -.00108101 00000+0 -77311-3 0 9999
L22 49444 53.2154 177.6932 0002692 12.2580 288.6806 15.73273031 11304

Live tracking and technical data element details for STARLINK-3126 (NORAD 49444). STARLINK-3126 can be tracked NOW for your location showing map with azimuth and elevation plus other details from your city location.

Track the satellite on the map from your city or location and see movement details for azimuth, elevation, latitude, longitude, range, height, and movement on the map or in text.







IsCatalogInMostPopularTable: catalog: 49444, numindb: 10
Update: records affected: 1



GetName: 49444 STARLINK-3126

Hit Count: updated at: Thu, 20 Jan 2022 16:06:05 GMT